QPF
0.11 0.11 0.11 0.12 0.12 0.13 0.14 0.14 0.15 0.17 0.18 0.17 0.17 0.18 0.16 0.13 0.15 0.12 0.10 0.11 0.10 0.08 0.07 0.06 0.04 0.02 0.01 0.01 0.00 0.00 0.00 0.00 0.01 0.00 0.00 0.01 0.01 0.01
0.12 0.12 0.13 0.14 0.13 0.13 0.13 0.14 0.14 0.13 0.14 0.15 0.14 0.14 0.14 0.14 0.16 0.12 0.11 0.12 0.09 0.07 0.06 0.04 0.03 0.02 0.01 0.01 0.00 0.00 0.00 0.00 0.00 0.00 0.00 0.00 0.00 0.00
0.14 0.15 0.13 0.12 0.10 0.10 0.10 0.11 0.12 0.13 0.15 0.15 0.14 0.13 0.14 0.14 0.14 0.12 0.10 0.08 0.07 0.05 0.04 0.03 0.02 0.01 0.01 0.00 0.00 0.00 0.00 0.00 0.00 0.00 0.00 0.00 0.00 0.00
0.08 0.10 0.08 0.06 0.06 0.07 0.08 0.09 0.10 0.11 0.12 0.14 0.14 0.13 0.14 0.13 0.12 0.10 0.08 0.06 0.05 0.05 0.03 0.03 0.02 0.01 0.01 0.00 0.00 0.00 0.00 0.00 0.00 0.00 0.00 0.00 0.00 0.00
0.03 0.04 0.04 0.04 0.05 0.06 0.07 0.08 0.09 0.09 0.10 0.10 0.12 0.12 0.12 0.10 0.09 0.08 0.06 0.05 0.04 0.03 0.02 0.02 0.01 0.01 0.00 0.00 0.00 0.00 0.00 0.00 0.00 0.00 0.00 0.00 0.00 0.00
0.02 0.03 0.03 0.04 0.05 0.06 0.06 0.06 0.07 0.08 0.09 0.10 0.12 0.12 0.10 0.08 0.07 0.06 0.05 0.03 0.03 0.02 0.02 0.01 0.01 0.00 0.00 0.00 0.00 0.00 0.00 0.00 0.00 0.00 0.00 0.00 0.00 0.00
0.03 0.03 0.03 0.05 0.07 0.06 0.06 0.05 0.06 0.07 0.08 0.08 0.09 0.09 0.08 0.07 0.06 0.05 0.03 0.03 0.03 0.02 0.01 0.00 0.00 0.00 0.00 0.00 0.00 0.00 0.00 0.00 0.00 0.00 0.00 0.00 0.00 0.00
0.03 0.04 0.04 0.05 0.07 0.07 0.07 0.08 0.08 0.09 0.09 0.09 0.07 0.06 0.06 0.05 0.04 0.03 0.03 0.02 0.02 0.01 0.00 0.00 0.00 0.00 0.00 0.00 0.00 0.00 0.00 0.00 0.00 0.00 0.00 0.00 0.00 0.00
0.03 0.03 0.04 0.05 0.05 0.04 0.06 0.09 0.10 0.11 0.10 0.08 0.07 0.05 0.04 0.03 0.03 0.02 0.02 0.01 0.01 0.00 0.00 0.00 0.00 0.00 0.00 0.00 0.00 0.00 0.00 0.00 0.00 0.00 0.00 0.00 0.00 0.00
0.04 0.04 0.04 0.05 0.05 0.05 0.05 0.06 0.07 0.07 0.07 0.06 0.04 0.03 0.03 0.02 0.02 0.01 0.01 0.00 0.00 0.00 0.00 0.00 0.00 0.00 0.00 0.00 0.00 0.00 0.00 0.00 0.00 0.00 0.00 0.00 0.00 0.00
0.03 0.04 0.05 0.06 0.07 0.06 0.05 0.05 0.04 0.04 0.04 0.04 0.03 0.02 0.01 0.01 0.01 0.01 0.01 0.00 0.00 0.00 0.00 0.00 0.00 0.00 0.00 0.00 0.00 0.00 0.00 0.00 0.00 0.00 0.00 0.00 0.00 0.00
0.02 0.04 0.05 0.05 0.05 0.04 0.04 0.04 0.04 0.03 0.03 0.03 0.02 0.02 0.01 0.01 0.01 0.00 0.00 0.00 0.00 0.00 0.00 0.00 0.00 0.00 0.00 0.00 0.00 0.00 0.00 0.00 0.00 0.00 0.00 0.00 0.00 0.00
0.02 0.02 0.03 0.03 0.03 0.03 0.02 0.02 0.02 0.02 0.02 0.02 0.01 0.01 0.00 0.00 0.00 0.00 0.00 0.00 0.00 0.00 0.00 0.00 0.00 0.00 0.00 0.00 0.00 0.00 0.00 0.00 0.00 0.00 0.00 0.00 0.00 0.00
0.01 0.02 0.02 0.02 0.02 0.01 0.01 0.01 0.01 0.01 0.01 0.01 0.01 0.01 0.01 0.00 0.00 0.00 0.00 0.00 0.00 0.00 0.00 0.00 0.00 0.00 0.00 0.00 0.00 0.00 0.00 0.00 0.00 0.00 0.00 0.00 0.00 0.00
0.01 0.01 0.01 0.01 0.01 0.01 0.01 0.01 0.00 0.00 0.00 0.00 0.00 0.00 0.00 0.00 0.00 0.00 0.00 0.00 0.00 0.00 0.00 0.00 0.00 0.00 0.00 0.00 0.00 0.00 0.00 0.00 0.00 0.00 0.00 0.00 0.00 0.00
0.01 0.01 0.01 0.01 0.01 0.01 0.00 0.00 0.00 0.00 0.00 0.00 0.00 0.00 0.00 0.00 0.00 0.00 0.00 0.00 0.00 0.00 0.00 0.00 0.00 0.00 0.00 0.00 0.00 0.00 0.00 0.00 0.00 0.00 0.00 0.00 0.00 0.00
0.01 0.01 0.00 0.00 0.00 0.00 0.00 0.00 0.00 0.00 0.00 0.00 0.00 0.00 0.00 0.00 0.00 0.00 0.00 0.00 0.00 0.00 0.00 0.00 0.00 0.00 0.00 0.00 0.00 0.00 0.00 0.00 0.00 0.00 0.00 0.00 0.00 0.00
0.01 0.01 0.00 0.00 0.00 0.00 0.00 0.00 0.00 0.00 0.00 0.00 0.00 0.00 0.00 0.00 0.00 0.00 0.00 0.00 0.00 0.00 0.00 0.00 0.00 0.00 0.00 0.00 0.00 0.00 0.00 0.00 0.00 0.00 0.00 0.00 0.00 0.00
0.01 0.01 0.01 0.00 0.00 0.00 0.00 0.00 0.00 0.00 0.00 0.00 0.00 0.00 0.00 0.00 0.00 0.00 0.00 0.00 0.00 0.00 0.00 0.00 0.00 0.00 0.00 0.00 0.00 0.00 0.00 0.00 0.00 0.00 0.00 0.00 0.00 0.00
0.00 0.00 0.00 0.00 0.00 0.00 0.00 0.00 0.00 0.00 0.00 0.00 0.00 0.00 0.00 0.00 0.00 0.00 0.00 0.00 0.00 0.00 0.00 0.00 0.00 0.00 0.00 0.00 0.00 0.00 0.00 0.00 0.00 0.00 0.00 0.00 0.00 0.00
0.00 0.00 0.00 0.00 0.00 0.00 0.00 0.00 0.00 0.00 0.00 0.00 0.00 0.00 0.00 0.00 0.00 0.00 0.00 0.00 0.00 0.00 0.00 0.00 0.00 0.00 0.00 0.00 0.00 0.00 0.00 0.00 0.00 0.00 0.00 0.00 0.00 0.00
0.00 0.00 0.00 0.00 0.00 0.00 0.00 0.00 0.00 0.00 0.00 0.00 0.00 0.00 0.00 0.00 0.00 0.00 0.00 0.00 0.00 0.00 0.00 0.00 0.00 0.00 0.00 0.00 0.00 0.00 0.00 0.00 0.00 0.00 0.00 0.00 0.00 0.00
0.00 0.00 0.00 0.00 0.00 0.00 0.00 0.00 0.00 0.00 0.00 0.00 0.00 0.00 0.00 0.00 0.00 0.00 0.00 0.00 0.00 0.00 0.00 0.00 0.00 0.00 0.00 0.00 0.00 0.00 0.00 0.00 0.00 0.00 0.00 0.00 0.00 0.00
MSLP
1015.86 1015.78 1015.76 1015.83 1015.98 1016.20 1016.48 1016.82 1017.20 1017.63 1018.11 1018.63 1019.19 1019.79 1020.43 1021.07 1021.72 1022.35 1022.95 1023.51 1024.01 1024.47 1024.87 1025.22 1025.52 1025.79 1026.03 1026.23 1026.41 1026.56 1026.70 1026.81 1026.90 1026.97 1027.00 1026.99 1026.96 1026.88
1016.16 1016.05 1015.99 1015.99 1016.06 1016.21 1016.44 1016.76 1017.18 1017.68 1018.27 1018.93 1019.64 1020.39 1021.15 1021.88 1022.57 1023.20 1023.76 1024.25 1024.66 1025.01 1025.32 1025.59 1025.83 1026.06 1026.28 1026.48 1026.66 1026.82 1026.95 1027.06 1027.12 1027.16 1027.15 1027.11 1027.03 1026.91
1016.56 1016.45 1016.36 1016.31 1016.32 1016.41 1016.60 1016.91 1017.35 1017.91 1018.58 1019.35 1020.18 1021.04 1021.88 1022.67 1023.39 1024.00 1024.50 1024.91 1025.22 1025.47 1025.68 1025.87 1026.05 1026.23 1026.42 1026.61 1026.79 1026.95 1027.08 1027.18 1027.23 1027.24 1027.21 1027.14 1027.03 1026.89
1017.05 1016.96 1016.86 1016.78 1016.76 1016.82 1016.98 1017.28 1017.73 1018.32 1019.04 1019.88 1020.78 1021.69 1022.57 1023.38 1024.08 1024.65 1025.09 1025.41 1025.64 1025.79 1025.91 1026.02 1026.14 1026.28 1026.44 1026.61 1026.78 1026.93 1027.06 1027.14 1027.19 1027.19 1027.15 1027.07 1026.95 1026.80
1017.61 1017.54 1017.46 1017.39 1017.36 1017.41 1017.56 1017.85 1018.29 1018.89 1019.63 1020.47 1021.38 1022.29 1023.16 1023.94 1024.60 1025.11 1025.48 1025.72 1025.86 1025.94 1025.99 1026.04 1026.11 1026.21 1026.33 1026.48 1026.62 1026.76 1026.87 1026.95 1026.99 1026.98 1026.94 1026.87 1026.77 1026.64
1018.20 1018.18 1018.14 1018.09 1018.08 1018.13 1018.29 1018.57 1018.99 1019.56 1020.27 1021.07 1021.93 1022.79 1023.60 1024.31 1024.90 1025.34 1025.64 1025.81 1025.89 1025.92 1025.92 1025.93 1025.96 1026.02 1026.11 1026.22 1026.34 1026.45 1026.53 1026.59 1026.62 1026.62 1026.60 1026.55 1026.48 1026.39
1018.80 1018.82 1018.83 1018.83 1018.85 1018.92 1019.08 1019.35 1019.74 1020.26 1020.90 1021.62 1022.39 1023.15 1023.86 1024.48 1024.98 1025.34 1025.58 1025.71 1025.75 1025.75 1025.73 1025.72 1025.72 1025.76 1025.82 1025.89 1025.96 1026.03 1026.08 1026.12 1026.13 1026.14 1026.13 1026.11 1026.08 1026.04
1019.38 1019.45 1019.50 1019.55 1019.61 1019.71 1019.87 1020.12 1020.48 1020.93 1021.48 1022.09 1022.74 1023.37 1023.96 1024.47 1024.88 1025.17 1025.36 1025.46 1025.49 1025.49 1025.47 1025.45 1025.45 1025.47 1025.50 1025.53 1025.55 1025.57 1025.58 1025.58 1025.57 1025.57 1025.57 1025.58 1025.59 1025.60
1019.95 1020.04 1020.14 1020.22 1020.32 1020.45 1020.62 1020.85 1021.15 1021.53 1021.97 1022.47 1022.98 1023.48 1023.95 1024.35 1024.67 1024.90 1025.06 1025.15 1025.19 1025.20 1025.20 1025.20 1025.20 1025.20 1025.20 1025.19 1025.17 1025.14 1025.09 1025.05 1025.01 1024.99 1024.99 1025.02 1025.05 1025.09
1020.50 1020.62 1020.74 1020.85 1020.98 1021.12 1021.29 1021.50 1021.75 1022.05 1022.40 1022.77 1023.16 1023.53 1023.88 1024.18 1024.43 1024.62 1024.75 1024.85 1024.91 1024.95 1024.98 1025.00 1025.01 1025.01 1024.99 1024.94 1024.87 1024.78 1024.68 1024.59 1024.52 1024.47 1024.45 1024.46 1024.50 1024.55
1021.07 1021.19 1021.32 1021.45 1021.59 1021.73 1021.90 1022.08 1022.29 1022.53 1022.78 1023.06 1023.33 1023.60 1023.85 1024.07 1024.25 1024.40 1024.53 1024.63 1024.71 1024.79 1024.85 1024.89 1024.92 1024.91 1024.87 1024.80 1024.69 1024.55 1024.40 1024.26 1024.14 1024.05 1023.99 1023.98 1023.99 1024.01
1021.67 1021.77 1021.89 1022.03 1022.17 1022.32 1022.47 1022.63 1022.80 1022.98 1023.17 1023.36 1023.55 1023.73 1023.90 1024.06 1024.19 1024.32 1024.43 1024.54 1024.64 1024.73 1024.81 1024.88 1024.91 1024.90 1024.85 1024.76 1024.61 1024.44 1024.25 1024.06 1023.89 1023.75 1023.65 1023.59 1023.55 1023.52
1022.28 1022.37 1022.48 1022.61 1022.74 1022.88 1023.02 1023.16 1023.30 1023.44 1023.58 1023.72 1023.84 1023.96 1024.08 1024.18 1024.28 1024.37 1024.47 1024.57 1024.67 1024.77 1024.86 1024.92 1024.96 1024.95 1024.89 1024.78 1024.62 1024.42 1024.20 1023.98 1023.76 1023.57 1023.41 1023.28 1023.18 1023.08
1022.89 1022.97 1023.06 1023.17 1023.30 1023.42 1023.55 1023.68 1023.80 1023.91 1024.02 1024.12 1024.21 1024.29 1024.36 1024.42 1024.48 1024.54 1024.61 1024.69 1024.77 1024.86 1024.93 1024.99 1025.02 1025.00 1024.94 1024.82 1024.65 1024.44 1024.20 1023.94 1023.69 1023.44 1023.22 1023.03 1022.85 1022.68
1023.47 1023.52 1023.60 1023.70 1023.81 1023.93 1024.04 1024.16 1024.27 1024.37 1024.47 1024.55 1024.61 1024.67 1024.71 1024.74 1024.76 1024.79 1024.82 1024.86 1024.90 1024.95 1025.00 1025.04 1025.04 1025.01 1024.94 1024.81 1024.64 1024.42 1024.16 1023.89 1023.60 1023.32 1023.04 1022.77 1022.52 1022.28
1023.95 1024.00 1024.07 1024.16 1024.25 1024.36 1024.46 1024.57 1024.68 1024.78 1024.87 1024.95 1025.00 1025.04 1025.06 1025.06 1025.06 1025.04 1025.03 1025.02 1025.01 1025.01 1025.01 1025.01 1024.99 1024.93 1024.84 1024.71 1024.53 1024.31 1024.05 1023.75 1023.44 1023.12 1022.79 1022.47 1022.15 1021.85
1024.32 1024.37 1024.43 1024.50 1024.59 1024.68 1024.78 1024.89 1025.00 1025.10 1025.19 1025.27 1025.33 1025.36 1025.36 1025.34 1025.30 1025.25 1025.18 1025.12 1025.06 1025.00 1024.95 1024.90 1024.84 1024.76 1024.65 1024.50 1024.31 1024.08 1023.81 1023.50 1023.17 1022.81 1022.44 1022.07 1021.70 1021.34
1024.56 1024.60 1024.66 1024.72 1024.80 1024.89 1024.99 1025.09 1025.20 1025.31 1025.41 1025.49 1025.55 1025.58 1025.57 1025.53 1025.47 1025.37 1025.27 1025.15 1025.04 1024.93 1024.83 1024.72 1024.62 1024.51 1024.37 1024.20 1023.99 1023.75 1023.46 1023.13 1022.77 1022.39 1021.98 1021.57 1021.16 1020.76
1024.68 1024.73 1024.78 1024.84 1024.91 1024.99 1025.09 1025.19 1025.30 1025.41 1025.52 1025.60 1025.66 1025.69 1025.68 1025.62 1025.54 1025.42 1025.28 1025.12 1024.97 1024.81 1024.67 1024.52 1024.38 1024.23 1024.06 1023.86 1023.63 1023.36 1023.04 1022.69 1022.30 1021.88 1021.44 1021.00 1020.55 1020.12
1024.74 1024.78 1024.83 1024.88 1024.95 1025.03 1025.11 1025.22 1025.32 1025.44 1025.54 1025.63 1025.68 1025.71 1025.69 1025.63 1025.53 1025.39 1025.23 1025.06 1024.87 1024.69 1024.51 1024.34 1024.16 1023.98 1023.77 1023.54 1023.28 1022.97 1022.62 1022.23 1021.81 1021.35 1020.88 1020.40 1019.93 1019.47
1024.76 1024.80 1024.84 1024.89 1024.95 1025.02 1025.11 1025.20 1025.30 1025.41 1025.51 1025.59 1025.64 1025.66 1025.64 1025.57 1025.47 1025.33 1025.16 1024.98 1024.79 1024.60 1024.40 1024.21 1024.01 1023.79 1023.56 1023.29 1022.99 1022.64 1022.24 1021.81 1021.35 1020.85 1020.35 1019.84 1019.34 1018.86
1024.79 1024.82 1024.86 1024.90 1024.95 1025.02 1025.09 1025.18 1025.27 1025.37 1025.46 1025.53 1025.57 1025.58 1025.56 1025.49 1025.39 1025.25 1025.10 1024.92 1024.74 1024.55 1024.35 1024.15 1023.94 1023.70 1023.43 1023.13 1022.78 1022.38 1021.94 1021.46 1020.95 1020.42 1019.88 1019.34 1018.81 1018.31
1024.83 1024.85 1024.88 1024.91 1024.96 1025.01 1025.08 1025.16 1025.24 1025.32 1025.40 1025.46 1025.49 1025.49 1025.46 1025.40 1025.30 1025.18 1025.04 1024.88 1024.71 1024.54 1024.35 1024.15 1023.93 1023.67 1023.37 1023.03 1022.64 1022.19 1021.70 1021.17 1020.62 1020.04 1019.47 1018.90 1018.35 1017.83
Thickness
5651 5653 5653 5653 5653 5653 5652 5649 5644 5635 5627 5624 5623 5622 5621 5619 5616 5614 5612 5609 5606 5603 5599 5596 5592 5589 5586 5583 5579 5576 5573 5570 5567 5564 5561 5557 5555 5552
5643 5645 5645 5645 5645 5645 5644 5643 5641 5637 5625 5618 5616 5614 5612 5609 5605 5603 5601 5597 5595 5592 5589 5585 5581 5578 5574 5572 5568 5565 5562 5559 5556 5553 5550 5547 5545 5542
5633 5634 5636 5637 5636 5636 5635 5634 5632 5629 5621 5611 5607 5604 5601 5599 5595 5592 5590 5587 5584 5581 5578 5575 5571 5568 5565 5562 5559 5556 5553 5550 5547 5544 5541 5539 5536 5533
5623 5625 5626 5627 5627 5627 5627 5625 5623 5621 5616 5606 5598 5595 5592 5589 5586 5583 5580 5577 5575 5572 5569 5565 5562 5560 5556 5553 5551 5548 5545 5542 5539 5536 5533 5530 5528 5525
5612 5614 5616 5618 5618 5618 5618 5616 5614 5611 5607 5600 5591 5586 5583 5580 5577 5574 5571 5568 5565 5563 5560 5557 5555 5552 5549 5546 5543 5540 5537 5535 5532 5529 5526 5523 5520 5518
5602 5604 5606 5608 5608 5609 5608 5607 5604 5599 5595 5590 5583 5578 5575 5571 5569 5565 5561 5559 5557 5555 5553 5550 5548 5545 5542 5540 5537 5534 5531 5528 5525 5522 5520 5517 5514 5512
5591 5593 5595 5597 5598 5600 5600 5597 5595 5590 5586 5581 5575 5571 5567 5564 5561 5558 5555 5551 5549 5548 5545 5544 5542 5539 5537 5535 5532 5530 5527 5524 5520 5517 5514 5512 5509 5507
5580 5582 5584 5585 5588 5589 5589 5588 5587 5584 5579 5574 5569 5565 5560 5558 5555 5553 5548 5545 5542 5542 5539 5537 5536 5534 5533 5531 5529 5526 5523 5519 5516 5513 5511 5508 5506 5504
5568 5571 5573 5574 5576 5577 5577 5577 5576 5574 5573 5569 5563 5559 5555 5554 5551 5547 5544 5541 5539 5538 5535 5531 5531 5529 5530 5528 5526 5523 5520 5516 5513 5511 5508 5506 5504 5502
5558 5560 5561 5562 5565 5567 5567 5565 5564 5563 5562 5561 5557 5554 5552 5549 5547 5545 5541 5537 5535 5533 5531 5527 5526 5525 5526 5525 5523 5520 5518 5515 5512 5509 5507 5505 5503 5501
5547 5549 5551 5552 5554 5556 5557 5555 5553 5552 5552 5551 5549 5547 5545 5544 5542 5539 5535 5531 5527 5526 5526 5524 5521 5520 5520 5520 5520 5518 5515 5513 5511 5509 5507 5505 5503 5501
5537 5539 5541 5543 5544 5547 5547 5546 5544 5542 5543 5542 5540 5539 5539 5538 5537 5535 5531 5526 5523 5522 5522 5520 5517 5515 5514 5516 5516 5516 5514 5513 5511 5509 5508 5506 5504 5501
5529 5530 5532 5535 5536 5538 5538 5538 5537 5536 5535 5535 5533 5532 5532 5532 5531 5531 5529 5526 5522 5519 5520 5518 5515 5512 5510 5509 5512 5514 5513 5512 5511 5510 5509 5508 5506 5502
5522 5523 5526 5528 5530 5531 5531 5532 5532 5531 5529 5528 5527 5526 5526 5526 5527 5527 5526 5525 5523 5521 5521 5518 5515 5511 5508 5506 5506 5510 5511 5511 5510 5509 5509 5508 5507 5505
5517 5520 5522 5524 5525 5525 5526 5527 5526 5525 5524 5522 5521 5521 5522 5523 5523 5523 5523 5522 5522 5521 5520 5519 5516 5513 5509 5506 5506 5506 5507 5510 5510 5509 5509 5508 5507 5505
5514 5516 5518 5519 5520 5521 5521 5521 5521 5521 5520 5519 5519 5519 5520 5520 5520 5520 5519 5518 5517 5518 5520 5520 5518 5515 5511 5509 5507 5506 5507 5506 5509 5509 5508 5508 5508 5507
5510 5512 5513 5514 5514 5515 5516 5517 5518 5518 5517 5517 5517 5517 5517 5518 5518 5518 5517 5516 5514 5514 5516 5518 5518 5517 5515 5512 5510 5510 5509 5509 5510 5509 5507 5506 5508 5508
5508 5508 5508 5510 5511 5512 5513 5513 5514 5515 5515 5515 5515 5516 5516 5516 5516 5516 5516 5514 5514 5514 5514 5515 5515 5514 5513 5515 5514 5512 5510 5509 5510 5509 5507 5504 5505 5509
5506 5506 5507 5509 5510 5511 5512 5513 5513 5514 5515 5515 5516 5515 5516 5516 5516 5515 5515 5514 5514 5514 5514 5514 5513 5511 5508 5507 5513 5515 5511 5511 5510 5509 5508 5506 5505 5509
5505 5506 5508 5509 5511 5512 5513 5514 5514 5515 5516 5516 5516 5516 5516 5516 5516 5515 5515 5515 5514 5514 5514 5515 5514 5512 5509 5509 5510 5514 5516 5512 5510 5509 5510 5509 5509 5510
5507 5509 5510 5512 5513 5514 5515 5516 5516 5516 5517 5517 5517 5517 5517 5517 5516 5516 5516 5516 5516 5514 5514 5515 5518 5518 5515 5513 5511 5512 5516 5517 5514 5511 5510 5507 5506 5506
5510 5512 5514 5515 5516 5517 5517 5518 5518 5518 5518 5518 5518 5518 5518 5518 5518 5518 5517 5517 5516 5516 5517 5518 5519 5518 5516 5513 5511 5511 5513 5517 5518 5516 5513 5510 5505 5503
5515 5516 5517 5519 5520 5520 5521 5521 5521 5520 5520 5520 5520 5520 5521 5520 5520 5520 5519 5519 5519 5518 5518 5518 5518 5517 5515 5514 5512 5511 5512 5513 5513 5513 5514 5514 5511 5509